,,PA_Meas_PMT16A,,PR_Meas_QMR101_102,,RH_Meas_QMH101,,SR_Meas_QMS101,,TA_Meas_QMH101,,GenWind,,GenWind,
time,status,PA,status,PR,status,RH,status,SR,status,TA,status,DirAvg,status,SpdAvg,
2011-02-19, 00:00:04,VALID,918.802,VALID,0,VALID,96.36,VALID,0,VALID,18.0651,VALID,100,VALID,0.394141,
2011-02-19, 00:01:04,VALID,918.805,VALID,0,VALID,96.3676,VALID,0,VALID,18.0651,VALID,100,VALID,0.382031,
2011-02-19, 00:02:04,VALID,918.782,VALID,0,VALID,96.421,VALID,0,VALID,18.0651,VALID,100,VALID,0.600391,
2011-02-19, 00:03:04,VALID,918.75,VALID,0,VALID,96.4667,VALID,0,VALID,18.0846,VALID,100,VALID,0.673047,
2011-02-19, 00:04:04,VALID,918.777,VALID,0,VALID,96.4896,VALID,0,VALID,18.1055,VALID,100,VALID,0.704297,
2011-02-19, 00:05:04,VALID,918.772,VALID,0,VALID,96.5429,VALID,0,VALID,18.0833,VALID,100,VALID,0.455469,
2011-02-19, 00:06:04,VALID,918.769,VALID,0,VALID,96.5658,VALID,0,VALID,18.1041,VALID,100,VALID,0.883203,
2011-02-19, 00:07:04,VALID,918.824,VALID,0,VALID,96.5353,VALID,0,VALID,18.0651,VALID,100,VALID,0.770703,
2011-02-19, 00:08:04,VALID,918.822,VALID,0,VALID,96.5887,VALID,0,VALID,18.0846,VALID,100,VALID,0.403516,
2011-02-19, 00:09:04,VALID,918.846,VALID,0,VALID,96.6039,VALID,0,VALID,18.0846,VALID,100,VALID,0.408984,
2011-02-19, 00:10:04,VALID,918.857,VALID,0,VALID,96.5811,VALID,0,VALID,18.0846,VALID,100,VALID,0.658203,
2011-02-19, 00:11:04,VALID,918.864,VALID,0,VALID,96.5887,VALID,0,VALID,18.0846,VALID,100,VALID,0.700781,
2011-02-19, 00:12:04,VALID,918.862,VALID,0,VALID,96.5963,VALID,0,VALID,18.0443,VALID,100,VALID,0.705078,
2011-02-19, 00:13:04,VALID,918.858,VALID,0,VALID,96.6039,VALID,0,VALID,18.0443,VALID,100,VALID,0.920703,
2011-02-19, 00:14:04,VALID,918.926,VALID,0,VALID,96.6115,VALID,0,VALID,18.0665,VALID,100,VALID,0.219531,
2011-02-19, 00:15:04,VALID,918.919,VALID,0,VALID,96.6497,VALID,0,VALID,18.0846,VALID,100,VALID,0,
2011-02-19, 00:16:04,VALID,918.935,VALID,0,VALID,96.6725,VALID,0,VALID,18.1041,VALID,100,VALID,0.0183594,
2011-02-19, 00:17:04,VALID,918.915,VALID,0,VALID,96.7107,VALID,0,VALID,18.1222,VALID,100,VALID,0.283984,
2011-02-19, 00:18:04,VALID,918.889,VALID,0,VALID,96.7716,VALID,0,VALID,18.2016,VALID,100,VALID,0.342578,
2011-02-19, 00:19:04,VALID,918.902,VALID,0,VALID,96.6802,VALID,0.107441,VALID,18.2016,VALID,100,VALID,0.388281,
2011-02-19, 00:20:04,VALID,918.892,VALID,0,VALID,96.703,VALID,0,VALID,18.2016,VALID,100,VALID,0.286719,
2011-02-19, 00:21:04,VALID,918.884,VALID,0,VALID,96.7259,VALID,0,VALID,18.2211,VALID,100,VALID,0.237109,
2011-02-19, 00:22:04,VALID,918.917,VALID,0,VALID,96.7335,VALID,0,VALID,18.2406,VALID,100,VALID,0.2375,
2011-02-19, 00:23:04,VALID,918.926,VALID,0,VALID,96.703,VALID,0,VALID,18.242,VALID,100,VALID,0.229687,
2011-02-19, 00:24:04,VALID,918.949,VALID,0,VALID,96.6878,VALID,0,VALID,18.2615,VALID,100,VALID,0.0390625,
2011-02-19, 00:25:04,VALID,918.983,VALID,0,VALID,96.6268,VALID,0,VALID,18.2406,VALID,100,VALID,0.542188,
2011-02-19, 00:26:04,VALID,919.019,VALID,0,VALID,96.6497,VALID,0,VALID,18.2211,VALID,100,VALID,0.341406,
2011-02-19, 00:27:04,VALID,919.019,VALID,0,VALID,96.6802,VALID,0,VALID,18.242,VALID,100,VALID,0.0589844,
2011-02-19, 00:28:04,VALID,919.046,VALID,0,VALID,96.6802,VALID,0,VALID,18.2615,VALID,100,VALID,0.268359,
2011-02-19, 00:29:04,VALID,919.015,VALID,0,VALID,96.6802,VALID,0,VALID,18.2197,VALID,100,VALID,0,
2011-02-19, 00:30:04,VALID,919.007,VALID,0,VALID,96.7411,VALID,0.107441,VALID,18.2587,VALID,100,VALID,0,
2011-02-19, 00:31:04,VALID,918.99,VALID,0,VALID,96.703,VALID,0,VALID,18.2782,VALID,100,VALID,0,
2011-02-19, 00:32:04,VALID,918.928,VALID,0,VALID,96.6344,VALID,0,VALID,18.2601,VALID,100,VALID,0.2125,
2011-02-19, 00:33:04,VALID,918.904,VALID,0,VALID,96.6115,VALID,0,VALID,18.2796,VALID,100,VALID,0.703516,
2011-02-19, 00:34:04,VALID,918.937,VALID,0,VALID,96.6268,VALID,0,VALID,18.2406,VALID,100,VALID,0.654688,
2011-02-19, 00:35:04,VALID,918.917,VALID,0,VALID,96.7183,VALID,0,VALID,18.2796,VALID,100,VALID,0.744141,
2011-02-19, 00:36:04,VALID,918.919,VALID,0,VALID,96.5734,VALID,0,VALID,18.2601,VALID,100,VALID,0.560547,
2011-02-19, 00:37:04,VALID,918.935,VALID,0,VALID,96.5658,VALID,0,VALID,18.2406,VALID,100,VALID,0.622656,
2011-02-19, 00:38:04,VALID,918.932,VALID,0,VALID,96.5582,VALID,0,VALID,18.2406,VALID,100,VALID,0.570703,
2011-02-19, 00:39:04,VALID,918.929,VALID,0,VALID,96.5887,VALID,0,VALID,18.2211,VALID,40,VALID,0.842969,
2011-02-19, 00:40:04,VALID,918.966,VALID,0,VALID,96.5963,VALID,0,VALID,18.2211,VALID,333,VALID,0.101953,
2011-02-19, 00:41:04,VALID,918.927,VALID,0,VALID,96.5506,VALID,0,VALID,18.2406,VALID,333,VALID,0.421484,
2011-02-19, 00:42:04,VALID,918.921,VALID,0,VALID,96.5963,VALID,0,VALID,18.2406,VALID,333,VALID,0.471875,
2011-02-19, 00:43:04,VALID,918.865,VALID,0,VALID,96.5429,VALID,0,VALID,18.2615,VALID,333,VALID,0,
2011-02-19, 00:44:04,VALID,918.878,VALID,0,VALID,96.5811,VALID,0,VALID,18.2406,VALID,333,VALID,0.226953,
2011-02-19, 00:45:04,VALID,918.865,VALID,0,VALID,96.6192,VALID,0,VALID,18.2392,VALID,333,VALID,0.143359,
2011-02-19, 00:46:04,VALID,918.823,VALID,0,VALID,96.5582,VALID,0,VALID,18.2392,VALID,333,VALID,0.340234,
2011-02-19, 00:47:04,VALID,918.778,VALID,0,VALID,96.6268,VALID,0,VALID,18.2809,VALID,333,VALID,0.414063,
2011-02-19, 00:48:04,VALID,918.721,VALID,0,VALID,96.6268,VALID,0,VALID,18.3185,VALID,333,VALID,0.885156,
2011-02-19, 00:49:04,VALID,918.691,VALID,0,VALID,96.5201,VALID,0,VALID,18.2796,VALID,333,VALID,1.08828,
2011-02-19, 00:50:04,VALID,918.67,VALID,0,VALID,96.4057,VALID,0,VALID,18.2211,VALID,333,VALID,1.07148,
2011-02-19, 00:51:04,VALID,918.675,VALID,0,VALID,96.3905,VALID,0,VALID,18.1626,VALID,333,VALID,1.10859,
2011-02-19, 00:52:04,VALID,918.692,VALID,0,VALID,96.4057,VALID,0,VALID,18.1431,VALID,333,VALID,0.949219,
2011-02-19, 00:53:04,VALID,918.672,VALID,0,VALID,96.5048,VALID,0,VALID,18.1028,VALID,52,VALID,0.983203,
2011-02-19, 00:54:04,VALID,918.692,VALID,0,VALID,96.5887,VALID,0,VALID,18.1835,VALID,52,VALID,1.09727,
2011-02-19, 00:55:04,VALID,918.695,VALID,0,VALID,96.5734,VALID,0,VALID,18.1028,VALID,51,VALID,0.954297,
2011-02-19, 00:56:04,VALID,918.687,VALID,0,VALID,96.5353,VALID,0,VALID,18.0833,VALID,24,VALID,0.845703,
2011-02-19, 00:57:04,VALID,918.66,VALID,0,VALID,96.5963,VALID,0,VALID,18.1055,VALID,24,VALID,0.862109,
2011-02-19, 00:58:04,VALID,918.655,VALID,0,VALID,96.5353,VALID,0.107441,VALID,18.0443,VALID,24,VALID,0.780859,
2011-02-19, 00:59:04,VALID,918.61,VALID,0,VALID,96.6115,VALID,0.107441,VALID,18.0638,VALID,24,VALID,0.505859,
2011-02-19, 01:00:04,VALID,918.594,VALID,0,VALID,96.5963,VALID,0,VALID,18.0443,VALID,24,VALID,0.616797,
2011-02-19, 01:01:04,VALID,918.61,VALID,0,VALID,96.5887,VALID,0.107441,VALID,18.0651,VALID,24,VALID,0.869922,
2011-02-19, 01:02:04,VALID,918.603,VALID,0,VALID,96.5658,VALID,0,VALID,18.0248,VALID,49,VALID,0.759766,
2011-02-19, 01:03:04,VALID,918.608,VALID,0,VALID,96.5734,VALID,0,VALID,18.0457,VALID,72,VALID,1.07422,
2011-02-19, 01:04:04,VALID,918.58,VALID,0,VALID,96.6268,VALID,0,VALID,18.0846,VALID,129,VALID,0.768359,
2011-02-19, 01:05:04,VALID,918.568,VALID,0,VALID,96.5963,VALID,0,VALID,18.0846,VALID,150,VALID,0.948438,
2011-02-19, 01:06:04,VALID,918.562,VALID,0,VALID,96.6115,VALID,0,VALID,18.0833,VALID,150,VALID,0.779297,
2011-02-19, 01:07:04,VALID,918.536,VALID,0,VALID,96.6039,VALID,0,VALID,18.125,VALID,150,VALID,0.635156,
2011-02-19, 01:08:04,VALID,918.522,VALID,0,VALID,96.6192,VALID,0,VALID,18.1236,VALID,150,VALID,0.839844,
2011-02-19, 01:09:04,VALID,918.46,VALID,0,VALID,96.6497,VALID,0,VALID,18.1028,VALID,150,VALID,0.727344,
2011-02-19, 01:10:04,VALID,918.477,VALID,0,VALID,96.6268,VALID,0,VALID,18.1236,VALID,150,VALID,0.980078,
2011-02-19, 01:11:04,VALID,918.456,VALID,0,VALID,96.6573,VALID,0,VALID,18.1236,VALID,150,VALID,0.574219,
2011-02-19, 01:12:04,VALID,918.424,VALID,0,VALID,96.6725,VALID,0,VALID,18.164,VALID,150,VALID,0.887891,
2011-02-19, 01:13:04,VALID,918.407,VALID,0,VALID,96.6954,VALID,0,VALID,18.1431,VALID,150,VALID,1.02852,
2011-02-19, 01:14:04,VALID,918.387,VALID,0,VALID,96.6573,VALID,0,VALID,18.1236,VALID,150,VALID,0.944531,
2011-02-19, 01:15:04,VALID,918.364,VALID,0,VALID,96.703,VALID,0,VALID,18.1431,VALID,150,VALID,0.883594,
2011-02-19, 01:16:04,VALID,918.334,VALID,0,VALID,96.6878,VALID,0,VALID,18.1041,VALID,150,VALID,1.24453,
2011-02-19, 01:17:04,VALID,918.309,VALID,0,VALID,96.6725,VALID,0,VALID,18.0846,VALID,150,VALID,0.782031,
2011-02-19, 01:18:04,VALID,918.332,VALID,0,VALID,96.703,VALID,0,VALID,18.0651,VALID,150,VALID,0.737109,
2011-02-19, 01:19:04,VALID,918.303,VALID,0,VALID,96.7488,VALID,0,VALID,18.1236,VALID,150,VALID,0.717969,
2011-02-19, 01:20:04,VALID,918.259,VALID,0,VALID,96.7716,VALID,0.107441,VALID,18.1236,VALID,150,VALID,0.727344,
2011-02-19, 01:21:04,VALID,918.223,VALID,0,VALID,96.764,VALID,0,VALID,18.0833,VALID,150,VALID,0.865234,
2011-02-19, 01:22:04,VALID,918.181,VALID,0,VALID,96.7793,VALID,0,VALID,18.0638,VALID,150,VALID,0.758594,
2011-02-19, 01:23:04,VALID,918.19,VALID,0,VALID,96.7945,VALID,0,VALID,18.125,VALID,150,VALID,0.653516,
2011-02-19, 01:24:04,VALID,918.196,VALID,0,VALID,96.8021,VALID,0,VALID,18.0846,VALID,150,VALID,0.573828,
2011-02-19, 01:25:04,VALID,918.16,VALID,0,VALID,96.8021,VALID,0,VALID,18.0651,VALID,150,VALID,0.899219,
2011-02-19, 01:26:04,VALID,918.151,VALID,0,VALID,96.8021,VALID,0,VALID,18.086,VALID,150,VALID,0.613281,
2011-02-19, 01:27:04,VALID,918.115,VALID,0,VALID,96.8403,VALID,0,VALID,18.0651,VALID,150,VALID,0.311719,
2011-02-19, 01:28:04,VALID,918.101,VALID,0,VALID,96.8631,VALID,0,VALID,18.0846,VALID,150,VALID,0.294922,
2011-02-19, 01:29:04,VALID,918.059,VALID,0,VALID,96.8403,VALID,0,VALID,18.0443,VALID,150,VALID,0.828125,
2011-02-19, 01:30:04,VALID,918.053,VALID,0,VALID,96.8403,VALID,0,VALID,18.0651,VALID,150,VALID,0.408984,
2011-02-19, 01:31:04,VALID,918.056,VALID,0,VALID,96.8707,VALID,0,VALID,18.0443,VALID,150,VALID,0.204688,
2011-02-19, 01:32:04,VALID,918.035,VALID,0,VALID,96.8707,VALID,0,VALID,18.0665,VALID,150,VALID,0.324219,
2011-02-19, 01:33:04,VALID,918.012,VALID,0,VALID,96.886,VALID,0,VALID,18.0651,VALID,150,VALID,0.409766,
2011-02-19, 01:34:04,VALID,917.981,VALID,0,VALID,96.8707,VALID,0,VALID,18.0248,VALID,150,VALID,0.667969,
2011-02-19, 01:35:04,VALID,917.951,VALID,0,VALID,96.8326,VALID,0,VALID,18.0067,VALID,150,VALID,0.791406,
2011-02-19, 01:36:04,VALID,917.946,VALID,0,VALID,96.8631,VALID,0,VALID,18.0067,VALID,150,VALID,0.742969,
2011-02-19, 01:37:04,VALID,917.924,VALID,0,VALID,96.8707,VALID,0,VALID,17.9872,VALID,150,VALID,0.419922,
2011-02-19, 01:38:04,VALID,917.892,VALID,0,VALID,96.8936,VALID,0,VALID,17.9872,VALID,150,VALID,0.453906,
2011-02-19, 01:39:04,VALID,917.858,VALID,0,VALID,96.9012,VALID,0,VALID,18.008,VALID,150,VALID,0.357031,
2011-02-19, 01:40:04,VALID,917.832,VALID,0,VALID,96.8936,VALID,0,VALID,17.9872,VALID,150,VALID,0.684375,
2011-02-19, 01:41:04,VALID,917.818,VALID,0,VALID,96.947,VALID,0,VALID,18.0275,VALID,150,VALID,0.374219,
2011-02-19, 01:42:04,VALID,917.799,VALID,0,VALID,96.947,VALID,0,VALID,18.0275,VALID,150,VALID,0.258984,
2011-02-19, 01:43:04,VALID,917.796,VALID,0,VALID,96.947,VALID,0,VALID,18.0067,VALID,150,VALID,0.455078,
2011-02-19, 01:44:04,VALID,917.785,VALID,0,VALID,96.9698,VALID,0,VALID,18.047,VALID,150,VALID,0.549219,
2011-02-19, 01:45:04,VALID,917.79,VALID,0,VALID,96.947,VALID,0,VALID,18.0067,VALID,150,VALID,0.264062,
2011-02-19, 01:46:04,VALID,917.783,VALID,0,VALID,96.9775,VALID,0,VALID,18.047,VALID,150,VALID,0.348437,
2011-02-19, 01:47:04,VALID,917.791,VALID,0,VALID,96.9622,VALID,0,VALID,18.0262,VALID,150,VALID,0.495703,
2011-02-19, 01:48:04,VALID,917.794,VALID,0,VALID,96.9317,VALID,0,VALID,18.0067,VALID,150,VALID,0.544141,
2011-02-19, 01:49:04,VALID,917.748,VALID,0,VALID,96.9546,VALID,0,VALID,18.0067,VALID,150,VALID,0.169922,
2011-02-19, 01:50:04,VALID,917.747,VALID,0,VALID,96.9089,VALID,0,VALID,18.0067,VALID,150,VALID,0.417188,
2011-02-19, 01:51:04,VALID,917.736,VALID,0,VALID,96.7793,VALID,0,VALID,17.9691,VALID,150,VALID,0.847656,
2011-02-19, 01:52:04,VALID,917.731,VALID,0,VALID,96.7945,VALID,0,VALID,17.9496,VALID,150,VALID,0.866016,
2011-02-19, 01:53:04,VALID,917.69,VALID,0,VALID,96.8174,VALID,0,VALID,17.9301,VALID,150,VALID,0.848437,
2011-02-19, 01:54:04,VALID,917.695,VALID,0,VALID,96.8174,VALID,0,VALID,17.8897,VALID,150,VALID,1.14336,
2011-02-19, 01:55:04,VALID,917.671,VALID,0,VALID,96.7869,VALID,0,VALID,17.8494,VALID,150,VALID,0.882813,
2011-02-19, 01:56:04,VALID,917.659,VALID,0,VALID,96.764,VALID,0,VALID,17.8299,VALID,79,VALID,1.17461,
2011-02-19, 01:57:04,VALID,917.66,VALID,0,VALID,96.7564,VALID,0,VALID,17.8521,VALID,79,VALID,1.12539,
2011-02-19, 01:58:04,VALID,917.637,VALID,0,VALID,96.7869,VALID,0,VALID,17.8104,VALID,79,VALID,0.842188,
2011-02-19, 01:59:04,VALID,917.634,VALID,0,VALID,96.7793,VALID,0,VALID,17.8118,VALID,79,VALID,0.595703,
2011-02-19, 02:00:04,VALID,917.626,VALID,0,VALID,96.764,VALID,0,VALID,17.8521,VALID,79,VALID,0.697656,
2011-02-19, 02:01:04,VALID,917.635,VALID,0,VALID,96.7716,VALID,0,VALID,17.8313,VALID,79,VALID,0.717578,
2011-02-19, 02:02:04,VALID,917.63,VALID,0,VALID,96.7488,VALID,0,VALID,17.8521,VALID,79,VALID,0.49375,
2011-02-19, 02:03:04,VALID,917.663,VALID,0,VALID,96.7793,VALID,0,VALID,17.8716,VALID,79,VALID,0.380078,
2011-02-19, 02:04:04,VALID,917.655,VALID,0,VALID,96.7564,VALID,0,VALID,17.8508,VALID,79,VALID,0.50625,
2011-02-19, 02:05:04,VALID,917.679,VALID,0,VALID,96.7869,VALID,0,VALID,17.8702,VALID,79,VALID,0.261328,
2011-02-19, 02:06:04,VALID,917.669,VALID,0,VALID,96.7564,VALID,0,VALID,17.8702,VALID,79,VALID,0.226563,
2011-02-19, 02:07:04,VALID,917.685,VALID,0,VALID,96.8098,VALID,0,VALID,17.9092,VALID,79,VALID,0.343359,
2011-02-19, 02:08:04,VALID,917.666,VALID,0,VALID,96.7183,VALID,0,VALID,17.9287,VALID,79,VALID,0.411328,
2011-02-19, 02:09:04,VALID,917.667,VALID,0,VALID,96.6725,VALID,0,VALID,17.9106,VALID,79,VALID,0.432813,
2011-02-19, 02:10:04,VALID,917.638,VALID,0,VALID,96.6039,VALID,0,VALID,17.8911,VALID,79,VALID,0.574219,
2011-02-19, 02:11:04,VALID,917.624,VALID,0,VALID,96.5658,VALID,0,VALID,17.8702,VALID,79,VALID,0.371484,
2011-02-19, 02:12:04,VALID,917.599,VALID,0,VALID,96.5658,VALID,0,VALID,17.8508,VALID,79,VALID,0.215234,
2011-02-19, 02:13:04,VALID,917.605,VALID,0,VALID,96.5658,VALID,0,VALID,17.8521,VALID,79,VALID,0.193359,
2011-02-19, 02:14:04,VALID,917.605,VALID,0,VALID,96.5963,VALID,0,VALID,17.8716,VALID,79,VALID,0.239844,
2011-02-19, 02:15:04,VALID,917.583,VALID,0,VALID,96.5811,VALID,0,VALID,17.8508,VALID,79,VALID,0.566797,
2011-02-19, 02:16:04,VALID,917.548,VALID,0,VALID,96.5506,VALID,0,VALID,17.8313,VALID,79,VALID,0.870703,
2011-02-19, 02:17:04,VALID,917.555,VALID,0,VALID,96.5734,VALID,0,VALID,17.8326,VALID,79,VALID,0.923047,
2011-02-19, 02:18:04,VALID,917.561,VALID,0,VALID,96.5734,VALID,0,VALID,17.8326,VALID,79,VALID,0.9125,
2011-02-19, 02:19:04,VALID,917.569,VALID,0,VALID,96.6039,VALID,0,VALID,17.8521,VALID,79,VALID,0.794531,
2011-02-19, 02:20:04,VALID,917.555,VALID,0,VALID,96.6573,VALID,0,VALID,17.8313,VALID,79,VALID,0.639453,
2011-02-19, 02:21:04,VALID,917.546,VALID,0,VALID,96.6649,VALID,0,VALID,17.8508,VALID,79,VALID,0.461328,
2011-02-19, 02:22:04,VALID,917.507,VALID,0,VALID,96.7107,VALID,0,VALID,17.8702,VALID,79,VALID,0.546484,
2011-02-19, 02:23:04,VALID,917.506,VALID,0,VALID,96.7183,VALID,0,VALID,17.8897,VALID,79,VALID,0.351172,
2011-02-19, 02:24:04,VALID,917.519,VALID,0,VALID,96.7107,VALID,0,VALID,17.8897,VALID,79,VALID,0.403125,
2011-02-19, 02:25:04,VALID,917.463,VALID,0,VALID,96.7259,VALID,0,VALID,17.9496,VALID,79,VALID,0.521484,
2011-02-19, 02:26:04,VALID,917.457,VALID,0,VALID,96.7335,VALID,0,VALID,17.9287,VALID,115,VALID,0.694531,
2011-02-19, 02:27:04,VALID,917.425,VALID,0,VALID,96.703,VALID,0,VALID,17.9287,VALID,133,VALID,1.08086,
2011-02-19, 02:28:04,VALID,917.417,VALID,0,VALID,96.7183,VALID,0,VALID,17.9691,VALID,133,VALID,0.424609,
2011-02-19, 02:29:04,VALID,917.393,VALID,0,VALID,96.7335,VALID,0,VALID,17.9468,VALID,133,VALID,0.789453,
2011-02-19, 02:30:04,VALID,917.376,VALID,0,VALID,96.7259,VALID,0,VALID,18.008,VALID,133,VALID,0.830859,
2011-02-19, 02:31:04,VALID,917.362,VALID,0,VALID,96.703,VALID,0,VALID,18.008,VALID,133,VALID,1.14766,
2011-02-19, 02:32:04,VALID,917.336,VALID,0,VALID,96.7411,VALID,0,VALID,18.0067,VALID,133,VALID,0.439063,
2011-02-19, 02:33:04,VALID,917.307,VALID,0,VALID,96.7335,VALID,0,VALID,18.0067,VALID,133,VALID,0.873438,
2011-02-19, 02:34:04,VALID,917.263,VALID,0,VALID,96.7107,VALID,0,VALID,18.0275,VALID,133,VALID,0.489062,
2011-02-19, 02:35:04,VALID,917.239,VALID,0,VALID,96.7183,VALID,0,VALID,18.008,VALID,141,VALID,1.02227,
2011-02-19, 02:36:04,VALID,917.188,VALID,0,VALID,96.7488,VALID,0.107441,VALID,17.9858,VALID,164,VALID,0.565625,
2011-02-19, 02:37:04,VALID,917.14,VALID,0,VALID,96.764,VALID,0.107441,VALID,17.9858,VALID,166,VALID,0.776563,
2011-02-19, 02:38:04,VALID,917.137,VALID,0,VALID,96.7183,VALID,0,VALID,17.9677,VALID,170,VALID,1.42695,
2011-02-19, 02:39:04,VALID,917.114,VALID,0,VALID,96.7488,VALID,0,VALID,17.9677,VALID,172,VALID,0.734766,
2011-02-19, 02:40:04,VALID,917.097,VALID,0,VALID,96.7183,VALID,0,VALID,17.9677,VALID,171,VALID,1.33516,
2011-02-19, 02:41:04,VALID,917.078,VALID,0,VALID,96.7564,VALID,0,VALID,17.9677,VALID,153,VALID,1.21758,
2011-02-19, 02:42:04,VALID,917.057,VALID,0,VALID,96.7488,VALID,0,VALID,17.9677,VALID,160,VALID,0.832812,
2011-02-19, 02:43:04,VALID,917.045,VALID,0,VALID,96.7411,VALID,0,VALID,17.9482,VALID,161,VALID,1.06328,
2011-02-19, 02:44:04,VALID,917.036,VALID,0,VALID,96.7488,VALID,0,VALID,17.9468,VALID,160,VALID,0.719531,
2011-02-19, 02:45:04,VALID,917.031,VALID,0,VALID,96.7183,VALID,0,VALID,17.9886,VALID,136,VALID,1.06016,
2011-02-19, 02:46:04,VALID,917.011,VALID,0,VALID,96.6802,VALID,0,VALID,17.9691,VALID,126,VALID,1.12383,
2011-02-19, 02:47:04,VALID,917.039,VALID,0,VALID,96.6649,VALID,0,VALID,17.9274,VALID,126,VALID,0.532812,
2011-02-19, 02:48:04,VALID,917.043,VALID,0,VALID,96.6344,VALID,0.107441,VALID,17.926,VALID,129,VALID,0.900391,
2011-02-19, 02:49:04,VALID,917.037,VALID,0,VALID,96.6039,VALID,0,VALID,17.9482,VALID,146,VALID,1.32656,
2011-02-19, 02:50:04,VALID,917.034,VALID,0,VALID,96.5506,VALID,0.107441,VALID,17.926,VALID,136,VALID,0.608203,
2011-02-19, 02:51:04,VALID,917.027,VALID,0,VALID,96.4667,VALID,0,VALID,17.9274,VALID,129,VALID,1.10312,
2011-02-19, 02:52:04,VALID,917.03,VALID,0,VALID,96.3829,VALID,0.107441,VALID,17.9899,VALID,129,VALID,1.21484,
2011-02-19, 02:53:04,VALID,917.027,VALID,0,VALID,96.3219,VALID,0,VALID,17.9691,VALID,141,VALID,0.865625,
2011-02-19, 02:54:04,VALID,917.026,VALID,0,VALID,96.238,VALID,0,VALID,17.9274,VALID,141,VALID,0.803516,
2011-02-19, 02:55:04,VALID,917.014,VALID,0,VALID,96.2075,VALID,0,VALID,17.9691,VALID,141,VALID,0.584375,
2011-02-19, 02:56:04,VALID,916.987,VALID,0,VALID,96.1694,VALID,0,VALID,17.9691,VALID,141,VALID,0.767578,
2011-02-19, 02:57:04,VALID,916.972,VALID,0,VALID,96.116,VALID,0,VALID,17.9065,VALID,140,VALID,1.13672,
2011-02-19, 02:58:04,VALID,916.901,VALID,0,VALID,96.0855,VALID,0.107441,VALID,17.9677,VALID,140,VALID,0.358594,
2011-02-19, 02:59:04,VALID,916.887,VALID,0,VALID,96.0398,VALID,0,VALID,17.9482,VALID,144,VALID,0.986719,
2011-02-19, 03:00:04,VALID,916.881,VALID,0,VALID,96.0017,VALID,0,VALID,18.0094,VALID,143,VALID,0.923828,
2011-02-19, 03:01:04,VALID,916.866,VALID,0,VALID,95.9941,VALID,0,VALID,17.9482,VALID,142,VALID,1.06602,
2011-02-19, 03:02:04,VALID,916.846,VALID,0,VALID,95.9636,VALID,0,VALID,17.9287,VALID,123,VALID,1.23086,
2011-02-19, 03:03:04,VALID,916.833,VALID,0,VALID,95.9941,VALID,0,VALID,17.9287,VALID,123,VALID,1.29805,
2011-02-19, 03:04:04,VALID,916.83,VALID,0,VALID,95.9941,VALID,0,VALID,17.9287,VALID,123,VALID,1.41641,
2011-02-19, 03:05:04,VALID,916.785,VALID,0,VALID,95.9712,VALID,0,VALID,17.9301,VALID,90,VALID,1.17109,
2011-02-19, 03:06:04,VALID,916.782,VALID,0,VALID,95.9483,VALID,0,VALID,17.9301,VALID,90,VALID,0.875,
2011-02-19, 03:07:04,VALID,916.789,VALID,0,VALID,95.895,VALID,0.107441,VALID,17.9482,VALID,92,VALID,1.03633,
2011-02-19, 03:08:04,VALID,916.775,VALID,0,VALID,95.7882,VALID,0,VALID,17.9482,VALID,92,VALID,0.999219,
2011-02-19, 03:09:04,VALID,916.808,VALID,0,VALID,95.6357,VALID,0,VALID,17.9468,VALID,92,VALID,1.30703,
2011-02-19, 03:10:04,VALID,916.753,VALID,0,VALID,95.529,VALID,0,VALID,17.9872,VALID,92,VALID,0.992188,
2011-02-19, 03:11:04,VALID,916.77,VALID,0,VALID,95.3918,VALID,0,VALID,18.0094,VALID,111,VALID,1.01289,
2011-02-19, 03:12:04,VALID,916.759,VALID,0.2,VALID,95.3308,VALID,0.107441,VALID,17.9872,VALID,111,VALID,1.03242,
2011-02-19, 03:13:04,VALID,916.718,VALID,0,VALID,95.3689,VALID,0,VALID,18.0275,VALID,126,VALID,0.812891,
2011-02-19, 03:14:04,VALID,916.729,VALID,0.2,VALID,95.3994,VALID,0,VALID,17.9845,VALID,160,VALID,0.830469,
2011-02-19, 03:15:04,VALID,916.674,VALID,0,VALID,95.4528,VALID,0,VALID,17.9663,VALID,160,VALID,1.01445,
2011-02-19, 03:16:04,VALID,916.641,VALID,0,VALID,95.5519,VALID,0,VALID,18.0262,VALID,160,VALID,0.735547,
2011-02-19, 03:17:04,VALID,916.628,VALID,0,VALID,95.5671,VALID,0,VALID,18.047,VALID,160,VALID,0.427734,
2011-02-19, 03:18:04,VALID,916.582,VALID,0,VALID,95.5519,VALID,0,VALID,17.9858,VALID,160,VALID,0.754297,
2011-02-19, 03:19:04,VALID,916.572,VALID,0,VALID,95.5595,VALID,0,VALID,18.008,VALID,160,VALID,0.942578,
2011-02-19, 03:20:04,VALID,916.522,VALID,0,VALID,95.6434,VALID,0,VALID,18.0484,VALID,160,VALID,0.969922,
2011-02-19, 03:21:04,VALID,916.509,VALID,0,VALID,95.6357,VALID,0,VALID,18.008,VALID,145,VALID,0.974609,
2011-02-19, 03:22:04,VALID,916.518,VALID,0,VALID,95.6739,VALID,0,VALID,18.0289,VALID,135,VALID,0.911719,
2011-02-19, 03:23:04,VALID,916.484,VALID,0,VALID,95.6967,VALID,0,VALID,17.9872,VALID,142,VALID,0.910547,
2011-02-19, 03:24:04,VALID,916.475,VALID,0,VALID,95.7272,VALID,0,VALID,17.9886,VALID,169,VALID,1.64609,
2011-02-19, 03:25:04,VALID,916.494,VALID,0,VALID,95.7958,VALID,0,VALID,18.008,VALID,170,VALID,0.789844,
2011-02-19, 03:26:04,VALID,916.483,VALID,0,VALID,95.8111,VALID,0,VALID,18.0094,VALID,171,VALID,1.38164,
2011-02-19, 03:27:04,VALID,916.458,VALID,0,VALID,95.8187,VALID,0,VALID,17.9663,VALID,147,VALID,0.994531,
2011-02-19, 03:28:04,VALID,916.471,VALID,0,VALID,95.8111,VALID,0,VALID,18.008,VALID,158,VALID,1.06406,
2011-02-19, 03:29:04,VALID,916.515,VALID,0,VALID,95.8187,VALID,0,VALID,17.9455,VALID,146,VALID,0.947266,
2011-02-19, 03:30:04,VALID,916.513,VALID,0,VALID,95.8035,VALID,0,VALID,18.0067,VALID,144,VALID,0.598047,
2011-02-19, 03:31:04,VALID,916.561,VALID,0,VALID,95.7958,VALID,0,VALID,18.0262,VALID,144,VALID,0.640625,
2011-02-19, 03:32:04,VALID,916.571,VALID,0,VALID,95.8797,VALID,0.107441,VALID,18.086,VALID,144,VALID,0.851953,
2011-02-19, 03:33:04,VALID,916.575,VALID,0,VALID,95.7272,VALID,0,VALID,18.0457,VALID,144,VALID,1.19297,
2011-02-19, 03:34:04,VALID,916.574,VALID,0,VALID,95.6434,VALID,0,VALID,18.0248,VALID,143,VALID,1.13711,
2011-02-19, 03:35:04,VALID,916.56,VALID,0,VALID,95.651,VALID,0,VALID,18.0457,VALID,20,VALID,1.12578,
2011-02-19, 03:36:04,VALID,916.56,VALID,0,VALID,95.5367,VALID,0,VALID,17.9845,VALID,19,VALID,0.331641,
2011-02-19, 03:37:04,VALID,916.541,VALID,0,VALID,95.5595,VALID,0,VALID,18.0275,VALID,20,VALID,0.211328,
2011-02-19, 03:38:04,VALID,916.548,VALID,0,VALID,95.5443,VALID,0,VALID,17.9872,VALID,20,VALID,0.580859,
2011-02-19, 03:39:04,VALID,916.565,VALID,0,VALID,95.4985,VALID,0,VALID,17.9886,VALID,19,VALID,0.714063,
2011-02-19, 03:40:04,VALID,916.578,VALID,0,VALID,95.4985,VALID,0,VALID,17.9468,VALID,19,VALID,0.951172,
2011-02-19, 03:41:04,VALID,916.585,VALID,0,VALID,95.4985,VALID,0,VALID,17.926,VALID,19,VALID,0.801953,
2011-02-19, 03:42:04,VALID,916.585,VALID,0,VALID,95.5062,VALID,0,VALID,17.9301,VALID,20,VALID,0.664453,
2011-02-19, 03:43:04,VALID,916.618,VALID,0,VALID,95.5062,VALID,0,VALID,17.9886,VALID,20,VALID,0.666797,
2011-02-19, 03:44:04,VALID,916.66,VALID,0,VALID,95.4909,VALID,0,VALID,17.9496,VALID,19,VALID,0.785937,